Regional Weather Roundup
Issued by NWS

Home | Current Version | Previous Version | Graphics & Text | Print | Product List | Glossary On
Versions: 1 2 3 4 5 6 7 8 9 10 11 12 13 14 15 16 17 18 19 20 21 22 23 24 25 26 27 28 29 30 31 32 33 34 35 36 37 38 39 40 41 42 43 44 45 46 47 48 49 50
000
ASUS43 KIND 281509
RWRIN

WEATHER ROUNDUP FOR INDIANA
NATIONAL WEATHER SERVICE INDIANAPOLIS IN
1100 AM EDT TUE JUL 28 2015

NOTE: "FAIR" INDICATES FEW OR NO CLOUDS BELOW 12,000 FEET WITH NO
SIGNIFICANT WEATHER AND/OR OBSTRUCTIONS TO VISIBILITY.

* - STATION DOES NOT REPORT WEATHER SUCH AS PRECIPITATION OR FOG.

+ - STATION NOT QUALITY CONTROLLED BY THE NATIONAL WEATHER SERVICE.
    USE DATA WITH CAUTION...ESPECIALLY DEWPOINT AND RELATIVE
    HUMIDITY OBSERVATIONS.

INZ001>003-010>013-019-020-281600-
NORTHWEST INDIANA

CITY           SKY/WX    TMP DP  RH WIND       PRES   REMARKS
GARY /AIRPORT/ MOSUNNY   84  68  58 S10       29.98F
KNOX *+        SUNNY     81  66  61 SE7       29.99F
LA PORTE +     SUNNY     82  68  63 SE8       30.01S
MICHIGAN CITY+ SUNNY     81  63  54 S6        30.01R
MONTICELLO +   SUNNY     80  72  76 SE6       29.99F
RENSSELAER +   SUNNY     81  73  78 SE6       29.99S

$$

LMZ046-743>745-281600-
SOUTHERN LAKE MICHIGAN

STATION/POSITION TIME  TEMP    WIND        PRES    WAVE
                       AIR SEA DIR/SP/G            HT
                 (UTC) (F)     (DEG/KT/KT) (MB)    (FT)
BURNS HARBOR     1400   81     150/  7/ 13 1015.9F
MICHIGAN CITY    1400   79     110/  6/  8   N/A
5NW MICH CITY    1500   79 74  150/ 10/ 16   N/A     1

$$

INZ004-005-014>016-021>024-281600-
NORTH CENTRAL INDIANA

CITY           SKY/WX    TMP DP  RH WIND       PRES   REMARKS
ELKHART        SUNNY     82  63  51 SE8       30.02F
GOSHEN         SUNNY     82  67  60 SE7       30.02F
LOGANSPORT +   SUNNY     81  64  57 E6        30.01F
PERU/GRISSOM   SUNNY     82  71  69 SE5       29.99F
ROCHESTER +    SUNNY     82  68  61 SE6       30.01F
SOUTH BEND     SUNNY     84  63  49 SE12      30.02F
WARSAW +       MOSUNNY   81  68  65 SE7       30.02F

$$

INZ006>009-017-018-025>027-281600-
NORTHEAST INDIANA

CITY           SKY/WX    TMP DP  RH WIND       PRES   REMARKS
ANGOLA *+      SUNNY     81  68  65 SE7       30.03F
AUBURN +       SUNNY     81  63  54 CALM      30.03F
FORT WAYNE     MOSUNNY   81  66  60 SE7       30.02F
HUNTINGTON +   SUNNY     81  65  58 SE5       30.01F

$$

INZ028-029-035-036-043>045-051>053-281600-
WEST CENTRAL INDIANA

CITY           SKY/WX    TMP DP  RH WIND       PRES   REMARKS
CRAWFORDSVL +  SUNNY     81  73  76 SE6         N/A
GREENCASTLE +  SUNNY     81  72  74 CALM      30.00S
LAFAYETTE      SUNNY     82  74  76 E5        29.98F
TERRE HAUTE    SUNNY     84  75  74 S7        29.98F

$$

INZ030>032-037>040-046>048-054>057-064-065-281600-
CENTRAL INDIANA

CITY           SKY/WX    TMP DP  RH WIND       PRES   REMARKS
ANDERSON       MOSUNNY   82  66  57 CALM      30.02F
COLUMBUS       SUNNY     82  73  74 CALM      29.99F
FISHERS *+     SUNNY     82  75  78 SE3       30.00F
FRANKFORT +    SUNNY     83  78  85 E3        30.02F
GREENWOOD *+   SUNNY     82  72  69 CALM      30.00F
INDIANAPOLIS   MOSUNNY   83  73  72 CALM      29.98F
-EAGLE CREEK   SUNNY     83  74  74 CALM      29.99F
KOKOMO *+      SUNNY     81  70  69 E6        30.00F
MARION +       SUNNY     80  69  68 SE7       30.01F
MT COMFORT *+  SUNNY     82  81  94 SE3       30.01S HX  95
SHELBYVILLE    SUNNY     84  75  74 E5        29.99F
ZIONSVILLE +   SUNNY     83  72  70 SE3       30.01F

$$

INZ033-034-041-042-049-050-058-059-281600-
EAST CENTRAL INDIANA

CITY           SKY/WX    TMP DP  RH WIND       PRES   REMARKS
MUNCIE         MOSUNNY   81  72  74 E5        30.01F

$$

INZ060-061-067>069-081>083-085>088-281600-
SOUTHWEST INDIANA

CITY           SKY/WX    TMP DP  RH WIND       PRES   REMARKS
EVANSVILLE     SUNNY     84  74  71 SW6       29.98F
HUNTINGBURG *+ SUNNY     82  75  78 SW7       29.99S
WASHINGTON +   MOSUNNY   83  75  76 S5        29.97F

$$

INZ062-063-066-070>080-084-089>092-281600-
SOUTH CENTRAL AND SOUTHEAST INDIANA

CITY           SKY/WX    TMP DP  RH WIND       PRES   REMARKS
BLOOMINGTON    MOSUNNY   84  76  76 VRB3      29.99F
MADISON *+     MOSUNNY   82  70  65 CALM      30.02F
NORTH VERNON + MOSUNNY   84  75  74 SE5       30.00F
SEYMOUR +      MOSUNNY   86  73  66 CALM      29.99F

$$




USA.gov is the U.S. government's official web portal to all federal, state and local government web resources and services.